GW4183 Weather Reports


Display with metric or nautical units.
time (UTC)temp
F
wind
direction
speed
MPH
gust
MPH
rain 1hr
in
rain 24hr
in
rain mn
in
humidity
%
barometer
mb
20260508200117 75 14 2.0 3.0 0.00 0.00 0.00 26 1010.9
20260508195614 75 3 3.0 6.0 0.00 0.00 0.00 26 1010.9
20260508195111 75 8 2.0 3.0 0.00 0.00 0.00 26 1010.8
20260508194607 76 31 3.0 11.0 0.00 0.00 0.00 26 1010.7
20260508194105 76 316 1.0 3.0 0.00 0.00 0.00 24 1010.9
20260508193601 76 340 5.0 8.0 0.00 0.00 0.00 26 1010.8
20260508193058 76 347 3.0 7.0 0.00 0.00 0.00 26 1010.9
20260508192554 75 7 3.0 4.0 0.00 0.00 0.00 25 1011.0
20260508192052 76 352 2.0 4.0 0.00 0.00 0.00 25 1011.2
20260508191548 75 20 6.0 10.0 0.00 0.00 0.00 25 1011.3
20260508191045 73 355 4.0 4.0 0.00 0.00 0.00 28 1011.4
20260508190542 75 43 3.0 6.0 0.00 0.00 0.00 30 1011.2
20260508190038 75 0 2.0 7.0 0.00 0.00 0.00 30 1011.2
20260508185536 74 22 4.0 6.0 0.00 0.00 0.00 31 1011.0
20260508185033 73 353 2.0 4.0 0.00 0.00 0.00 32 1011.0
20260508184531 72 351 1.0 2.0 0.00 0.00 0.00 34 1011.2
20260508184027 72 32 3.0 4.0 0.00 0.00 0.00 33 1011.4
20260508183524 73 16 3.0 4.0 0.00 0.00 0.00 31 1011.5
20260508183020 74 16 1.0 3.0 0.00 0.00 0.00 32 1011.4
20260508182517 74 14 1.0 3.0 0.00 0.00 0.00 32 1011.5
20260508182013 74 340 1.0 3.0 0.00 0.00 0.00 34 1011.6
20260508181509 74 14 3.0 4.0 0.00 0.00 0.00 34 1011.5
20260508181007 73 27 0.0 6.0 0.00 0.00 0.00 33 1011.6
20260508180503 73 2 4.0 8.0 0.00 0.00 0.00 33 1011.8
20260508175959 72 351 2.0 8.0 0.00 0.00 0.00 34 1011.8
20260508175455 73 346 2.0 4.0 0.00 0.00 0.00 35 1011.8
20260508174953 72 1 2.0 4.0 0.00 0.00 0.00 33 1011.8
20260508174451 72 35 2.0 8.0 0.00 0.00 0.00 33 1011.8
20260508173947 72 340 1.0 4.0 0.00 0.00 0.00 33 1011.9
20260508173445 73 332 1.0 3.0 0.00 0.00 0.00 31 1012.1
20260508172940 72 4 1.0 3.0 0.00 0.00 0.00 33 1012.1
20260508172438 72 313 1.0 2.0 0.00 0.00 0.00 38 1012.1
20260508171934 73 333 1.0 2.0 0.00 0.00 0.00 33 1012.1
20260508171430 71 249 1.0 3.0 0.00 0.00 0.00 34 1012.2
20260508170927 70 0 2.0 6.0 0.00 0.00 0.00 32 1012.3
20260508170425 71 15 2.0 6.0 0.00 0.00 0.00 32 1012.2
20260508165921 71 331 1.0 2.0 0.00 0.00 0.00 33 1012.4
20260508165419 71 9 1.0 2.0 0.00 0.00 0.00 33 1012.5
20260508164915 70 271 3.0 3.0 0.00 0.00 0.00 33 1012.7
20260508164412 69 342 2.0 2.0 0.00 0.00 0.00 33 1012.5
20260508163909 70 294 1.0 3.0 0.00 0.00 0.00 32 1012.7
20260508163407 70 313 0.0 3.0 0.00 0.00 0.00 33 1012.5
20260508162902 70 15 1.0 2.0 0.00 0.00 0.00 31 1012.7
20260508162400 70 348 0.0 3.0 0.00 0.00 0.00 33 1012.7
20260508161857 69 349 1.0 4.0 0.00 0.00 0.00 33 1012.8
20260508161354 69 350 1.0 3.0 0.00 0.00 0.00 32 1012.4
20260508160851 69 348 1.0 3.0 0.00 0.00 0.00 33 1012.5
20260508160350 69 350 0.0 2.0 0.00 0.00 0.00 32 1012.5
20260508155845 69 342 0.0 1.0 0.00 0.00 0.00 34 1012.4
20260508155343 68 328 1.0 2.0 0.00 0.00 0.00 32 1012.8
20260508154840 68 341 1.0 2.0 0.00 0.00 0.00 34 1012.5
20260508154338 68 339 0.0 1.0 0.00 0.00 0.00 31 1012.8
20260508153834 66 347 0.0 1.0 0.00 0.00 0.00 34 1012.8
20260508153331 65 346 0.0 1.0 0.00 0.00 0.00 35 1012.8
20260508152827 64 324 0.0 0.0 0.00 0.00 0.00 39 1012.8
20260508152324 64 324 0.0 1.0 0.00 0.00 0.00 39 1012.9
20260508151820 63 324 0.0 0.0 0.00 0.00 0.00 41 1012.5
20260508151317 63 328 0.0 1.0 0.00 0.00 0.00 39 1012.8
20260508150813 63 329 0.0 0.0 0.00 0.00 0.00 39 1012.5
20260508150310 63 329 0.0 1.0 0.00 0.00 0.00 38 1012.4
20260508145807 62 329 0.0 1.0 0.00 0.00 0.00 39 1012.4
20260508145306 62 329 0.0 1.0 0.00 0.00 0.00 43 1012.5
20260508144759 62 329 0.0 1.0 0.00 0.00 0.00 41 1012.7
20260508144257 62 329 0.0 0.0 0.00 0.00 0.00 40 1012.3
20260508143755 61 336 0.0 1.0 0.00 0.00 0.00 42 1012.4
20260508143252 60 337 0.0 0.0 0.00 0.00 0.00 42 1012.7
20260508142748 60 348 0.0 0.0 0.00 0.00 0.00 44 1012.5
20260508142245 59 348 0.0 1.0 0.00 0.00 0.00 45 1012.4
20260508141741 59 338 0.0 1.0 0.00 0.00 0.00 45 1012.8
20260508141239 59 344 1.0 1.0 0.00 0.00 0.00 45 1012.7
20260508140736 58 355 0.0 1.0 0.00 0.00 0.00 45 1012.7
20260508140233 58 326 0.0 1.0 0.00 0.00 0.00 45 1012.8
20260508135729 58 359 0.0 1.0 0.00 0.00 0.00 46 1012.4
20260508135225 57 11 1.0 2.0 0.00 0.00 0.00 44 1012.5
20260508134715 56 352 1.0 2.0 0.00 0.00 0.00 46 1012.7
20260508134213 56 3 1.0 1.0 0.00 0.00 0.00 49 1012.8
20260508133710 56 349 1.0 1.0 0.00 0.00 0.00 49 1012.8
20260508133207 56 341 2.0 2.0 0.00 0.00 0.00 47 1012.5
20260508132704 56 354 1.0 1.0 0.00 0.00 0.00 47 1012.5
20260508132201 55 342 1.0 1.0 0.00 0.00 0.00 49 1012.3
20260508131657 54 11 1.0 2.0 0.00 0.00 0.00 50 1012.4
20260508131153 54 3 1.0 2.0 0.00 0.00 0.00 50 1012.5
20260508130650 54 20 2.0 2.0 0.00 0.00 0.00 49 1012.3
20260508130147 54 347 1.0 3.0 0.00 0.00 0.00 49 1012.5
20260508125643 53 7 0.0 1.0 0.00 0.00 0.00 48 1012.2
20260508125140 51 350 0.0 0.0 0.00 0.00 0.00 52 1012.1
20260508124638 50 350 0.0 0.0 0.00 0.00 0.00 54 1012.0
20260508124135 50 350 0.0 0.0 0.00 0.00 0.00 56 1011.8
20260508123633 49 350 0.0 0.0 0.00 0.00 0.00 59 1012.0
20260508123130 49 350 0.0 1.0 0.00 0.00 0.00 59 1011.8
20260508122626 50 350 0.0 0.0 0.00 0.00 0.00 54 1012.1
20260508122123 50 350 1.0 1.0 0.00 0.00 0.00 54 1012.1
20260508121622 49 351 0.0 1.0 0.00 0.00 0.00 53 1012.0
20260508121120 49 351 0.0 1.0 0.00 0.00 0.00 55 1012.0
20260508120617 49 350 0.0 1.0 0.00 0.00 0.00 54 1011.8
20260508120115 49 351 0.0 1.0 0.00 0.00 0.00 53 1011.8
20260508115612 49 351 1.0 1.0 0.00 0.00 0.00 54 1011.7
20260508115109 49 5 1.0 1.0 0.00 0.00 0.00 53 1011.7
20260508114606 49 358 1.0 1.0 0.00 0.00 0.00 53 1011.5
20260508114101 49 2 1.0 1.0 0.00 0.00 0.00 53 1011.7
20260508113559 49 4 1.0 1.0 0.00 0.00 0.00 53 1011.6
20260508113057 49 15 1.0 1.0 0.00 0.00 0.00 53 1011.5
20260508112553 49 353 1.0 2.0 0.00 0.00 0.00 53 1011.6
20260508112050 50 346 1.0 1.0 0.00 0.00 0.00 51 1011.4
20260508111547 50 356 0.0 1.0 0.00 0.00 0.00 50 1011.3
20260508111044 50 356 0.0 1.0 0.00 0.00 0.00 49 1011.4
20260508110542 50 356 0.0 1.0 0.00 0.00 0.00 49 1011.5
20260508110038 50 356 0.0 1.0 0.00 0.00 0.00 50 1011.2
20260508105533 51 353 0.0 1.0 0.00 0.00 0.00 50 1011.4
20260508105031 51 0 0.0 1.0 0.00 0.00 0.00 49 1011.4
20260508104528 51 7 1.0 2.0 0.00 0.00 0.00 49 1011.2
20260508104024 51 339 1.0 3.0 0.00 0.00 0.00 48 1011.4
20260508103521 51 0 0.0 1.0 0.00 0.00 0.00 47 1011.0
20260508103019 50 0 0.0 0.0 0.00 0.00 0.00 51 1010.9
20260508102517 50 359 0.0 0.0 0.00 0.00 0.00 51 1010.9
20260508102014 50 359 0.0 1.0 0.00 0.00 0.00 51 1010.8
20260508101511 51 359 0.0 1.0 0.00 0.00 0.00 51 1010.9
20260508101008 51 359 0.0 1.0 0.00 0.00 0.00 51 1010.8
20260508100507 51 359 0.0 1.0 0.00 0.00 0.00 51 1010.7
20260508100003 51 0 1.0 1.0 0.00 0.00 0.00 51 1010.6
20260508095500 52 4 0.0 1.0 0.00 0.00 0.00 50 1010.6
20260508094957 52 6 0.0 1.0 0.00 0.00 0.00 49 1010.6
20260508094454 53 5 1.0 1.0 0.00 0.00 0.00 48 1010.5
20260508093950 53 1 0.0 1.0 0.00 0.00 0.00 47 1010.6
20260508093448 53 5 0.0 2.0 0.00 0.00 0.00 46 1010.7
20260508092945 53 0 0.0 1.0 0.00 0.00 0.00 45 1010.7
20260508092443 53 4 0.0 1.0 0.00 0.00 0.00 45 1010.7
20260508091942 53 11 1.0 2.0 0.00 0.00 0.00 45 1010.7
20260508091438 53 11 1.0 1.0 0.00 0.00 0.00 47 1010.5
20260508090935 53 1 0.0 1.0 0.00 0.00 0.00 47 1010.8
20260508090434 53 2 1.0 1.0 0.00 0.00 0.00 47 1010.8
20260508085929 53 2 0.0 1.0 0.00 0.00 0.00 48 1010.8
20260508085426 53 7 0.0 1.0 0.00 0.00 0.00 48 1010.8
20260508084923 53 3 1.0 1.0 0.00 0.00 0.00 49 1010.7
20260508084419 54 5 0.0 1.0 0.00 0.00 0.00 47 1010.8
20260508083918 54 10 1.0 2.0 0.00 0.00 0.00 47 1010.8
20260508083415 54 9 0.0 1.0 0.00 0.00 0.00 49 1010.9
20260508082914 54 1 0.0 1.0 0.00 0.00 0.00 49 1010.9
20260508082412 54 358 1.0 1.0 0.00 0.00 0.00 49 1011.0
20260508081910 54 4 1.0 1.0 0.00 0.00 0.00 48 1011.0
20260508081406 54 4 1.0 1.0 0.00 0.00 0.00 48 1010.9
20260508080902 55 357 0.0 1.0 0.00 0.00 0.00 47 1011.2
20260508080401 55 5 1.0 1.0 0.00 0.00 0.00 45 1010.9
20260508075857 55 22 1.0 2.0 0.00 0.00 0.00 43 1011.0
20260508075354 55 15 2.0 2.0 0.00 0.00 0.00 43 1011.3
20260508074852 56 1 1.0 1.0 0.00 0.00 0.00 43 1011.3
20260508074348 56 2 0.0 1.0 0.00 0.00 0.00 43 1011.3
20260508073846 56 5 1.0 2.0 0.00 0.00 0.00 42 1011.0
20260508073344 57 19 0.0 2.0 0.00 0.00 0.00 41 1011.3
20260508072840 57 42 1.0 3.0 0.00 0.00 0.00 40 1011.4
20260508072336 57 93 1.0 3.0 0.00 0.00 0.00 40 1011.3
20260508071834 58 137 3.0 4.0 0.00 0.00 0.00 38 1011.3
20260508071332 58 12 1.0 4.0 0.00 0.00 0.00 39 1011.3
20260508070829 58 353 1.0 7.0 0.00 0.00 0.00 39 1011.4
20260508070327 57 49 3.0 4.0 0.00 0.00 0.00 39 1011.7
20260508065824 57 356 0.0 2.0 0.00 0.00 0.00 40 1011.6
20260508065322 56 340 1.0 2.0 0.00 0.00 0.00 42 1011.6
20260508064821 56 14 1.0 2.0 0.00 0.00 0.00 44 1011.6
20260508064318 55 5 1.0 3.0 0.00 0.00 0.00 46 1011.5
20260508063815 55 6 1.0 1.0 0.00 0.00 0.00 48 1011.6
20260508063313 55 1 1.0 1.0 0.00 0.00 0.00 49 1011.8
20260508062810 56 1 0.0 1.0 0.00 0.00 0.00 49 1011.8
20260508062308 56 358 0.0 1.0 0.00 0.00 0.00 47 1011.8
20260508061804 56 358 0.0 1.0 0.00 0.00 0.00 46 1011.8
20260508061301 57 2 0.0 1.0 0.00 0.00 0.00 43 1011.7
20260508060758 57 2 1.0 1.0 0.00 0.00 0.00 43 1011.9
20260508060256 57 1 1.0 1.0 0.00 0.00 0.00 42 1011.7
20260508055751 58 1 0.0 1.0 0.00 0.00 0.00 41 1011.6
20260508055248 58 4 1.0 1.0 0.00 0.00 0.00 41 1011.5
20260508054744 58 6 0.0 1.0 0.00 0.00 0.00 40 1011.6
20260508054243 58 7 1.0 2.0 0.00 0.00 0.00 39 1011.5
20260508053739 58 58 0.0 1.0 0.00 0.00 0.00 39 1011.4
20260508053236 58 341 0.0 2.0 0.00 0.00 0.00 40 1011.3
20260508052734 58 353 0.0 1.0 0.00 0.00 0.00 40 1011.3
20260508052231 58 354 0.0 1.0 0.00 0.00 0.00 40 1011.4
20260508051727 59 354 0.0 1.0 0.00 0.00 0.00 40 1011.5
20260508051223 59 1 0.0 1.0 0.00 0.00 0.00 38 1011.3
20260508050719 59 341 1.0 2.0 0.00 0.00 0.00 38 1011.3
20260508050217 59 353 0.0 3.0 0.00 0.00 0.00 38 1011.3
20260508045717 59 2 0.0 2.0 0.00 0.00 0.00 38 1011.2
20260508045216 59 352 1.0 3.0 0.00 0.00 0.00 37 1011.4
20260508044713 59 73 1.0 2.0 0.00 0.00 0.00 37 1011.2
20260508044209 60 40 1.0 2.0 0.00 0.00 0.00 37 1011.2
20260508043705 60 212 1.0 3.0 0.00 0.00 0.00 36 1011.4
20260508043203 60 50 1.0 4.0 0.00 0.00 0.00 37 1011.4
20260508042659 60 41 1.0 3.0 0.00 0.00 0.00 37 1011.4
20260508042157 60 3 0.0 1.0 0.00 0.00 0.00 36 1011.3
20260508041653 60 24 2.0 3.0 0.00 0.00 0.00 36 1011.3
20260508041150 61 61 2.0 3.0 0.00 0.00 0.00 35 1011.3
20260508040646 61 34 1.0 3.0 0.00 0.00 0.00 35 1011.5
20260508040144 60 25 1.0 3.0 0.00 0.00 0.00 35 1011.4
20260508035641 61 35 1.0 3.0 0.00 0.00 0.00 35 1011.5
20260508035138 61 31 1.0 2.0 0.00 0.00 0.00 34 1011.4
20260508034635 61 359 0.0 3.0 0.00 0.00 0.00 35 1011.5
20260508034132 61 23 1.0 1.0 0.00 0.00 0.00 34 1011.4
20260508033630 61 75 2.0 3.0 0.00 0.00 0.00 34 1011.4
20260508033128 61 327 1.0 3.0 0.00 0.00 0.00 34 1011.3
20260508032624 62 127 2.0 3.0 0.00 0.00 0.00 33 1011.4
20260508032122 62 19 1.0 2.0 0.00 0.00 0.00 33 1011.2
20260508031619 62 134 2.0 4.0 0.00 0.00 0.00 33 1011.2
20260508031115 62 67 2.0 3.0 0.00 0.00 0.00 32 1011.2
20260508030611 62 341 1.0 3.0 0.00 0.00 0.00 33 1011.3
20260508030109 62 14 1.0 1.0 0.00 0.00 0.00 33 1011.2
20260508025605 62 359 1.0 2.0 0.00 0.00 0.00 33 1011.2
20260508025102 62 350 0.0 1.0 0.00 0.00 0.00 33 1011.0
20260508024558 62 47 1.0 3.0 0.00 0.00 0.00 33 1011.0
20260508024055 62 341 0.0 3.0 0.00 0.00 0.00 33 1011.2
20260508023552 62 345 0.0 1.0 0.00 0.00 0.00 34 1010.9
20260508023049 63 347 0.0 1.0 0.00 0.00 0.00 34 1010.7
20260508022545 63 39 1.0 3.0 0.00 0.00 0.00 33 1010.8
20260508022042 64 7 1.0 1.0 0.00 0.00 0.00 33 1010.7
20260508021538 64 42 1.0 2.0 0.00 0.00 0.00 33 1010.8
20260508021034 63 2 0.0 1.0 0.00 0.00 0.00 33 1010.6
20260508020532 63 350 0.0 1.0 0.00 0.00 0.00 34 1010.6
20260508020029 63 344 0.0 1.0 0.00 0.00 0.00 33 1010.6
20260508015526 63 358 0.0 1.0 0.00 0.00 0.00 34 1010.5
20260508015023 63 358 0.0 0.0 0.00 0.00 0.00 35 1010.6
20260508014520 63 0 0.0 0.0 0.00 0.00 0.00 35 1010.4
20260508014016 63 0 0.0 0.0 0.00 0.00 0.00 34 1010.5
20260508013512 64 0 0.0 0.0 0.00 0.00 0.00 32 1010.5
20260508013010 65 0 0.0 0.0 0.00 0.00 0.00 31 1010.3
20260508012507 65 0 0.0 0.0 0.00 0.00 0.00 31 1010.3
20260508012004 66 0 0.0 0.0 0.00 0.00 0.00 31 1010.4
20260508011502 66 0 0.0 0.0 0.00 0.00 0.00 31 1010.3
20260508010959 67 1 0.0 0.0 0.00 0.00 0.00 30 1010.1
20260508010456 67 0 0.0 0.0 0.00 0.00 0.00 29 1010.1
20260508005953 68 0 0.0 0.0 0.00 0.00 0.00 29 1010.2
20260508005450 69 0 0.0 0.0 0.00 0.00 0.00 29 1010.2
20260508004946 69 0 0.0 0.0 0.00 0.00 0.00 28 1010.1
20260508004443 70 0 0.0 1.0 0.00 0.00 0.00 28 1010.2
20260508003939 70 346 0.0 1.0 0.00 0.00 0.00 27 1010.2
20260508003436 71 345 0.0 1.0 0.00 0.00 0.00 27 1010.2
20260508002933 71 344 1.0 1.0 0.00 0.00 0.00 25 1010.4
20260508002430 71 341 0.0 1.0 0.00 0.00 0.00 26 1010.2
20260508001926 71 341 0.0 1.0 0.00 0.00 0.00 26 1010.1
20260508001423 72 10 1.0 1.0 0.00 0.00 0.00 25 1010.2
20260508000919 72 350 1.0 1.0 0.00 0.00 0.00 25 1010.1
20260508000415 72 347 1.0 2.0 0.00 0.00 0.00 25 1010.2
20260507235912 72 335 1.0 1.0 0.00 0.00 0.00 25 1010.1
20260507235409 73 1 1.0 1.0 0.00 0.00 0.00 25 1010.1
20260507234906 73 347 0.0 1.0 0.00 0.00 0.00 26 1010.2
20260507234403 73 346 0.0 1.0 0.00 0.00 0.00 25 1010.4
20260507233859 73 333 0.0 1.0 0.00 0.00 0.00 25 1010.2
20260507233356 73 356 0.0 1.0 0.00 0.00 0.00 24 1010.2
20260507232855 73 348 0.0 1.0 0.00 0.00 0.00 26 1010.3
20260507232351 72 343 0.0 0.0 0.00 0.00 0.00 25 1010.3
20260507231849 72 343 0.0 2.0 0.00 0.00 0.00 26 1010.4
20260507231345 73 344 0.0 1.0 0.00 0.00 0.00 25 1010.2
20260507230841 73 5 1.0 3.0 0.00 0.00 0.00 24 1010.3
20260507230339 74 350 1.0 1.0 0.00 0.00 0.00 25 1010.4
20260507225838 74 348 1.0 2.0 0.00 0.00 0.00 23 1010.2
20260507225334 74 329 2.0 2.0 0.00 0.00 0.00 24 1010.3
20260507224831 74 21 1.0 3.0 0.00 0.00 0.00 25 1010.4
20260507224328 74 267 2.0 2.0 0.00 0.00 0.00 23 1010.5
20260507223824 74 277 1.0 2.0 0.00 0.00 0.00 25 1010.5
20260507223320 75 266 3.0 4.0 0.00 0.00 0.00 22 1010.4
20260507222817 75 240 4.0 6.0 0.00 0.00 0.00 23 1010.3
20260507222313 76 337 0.0 1.0 0.00 0.00 0.00 24 1010.5
20260507221811 76 339 0.0 1.0 0.00 0.00 0.00 23 1010.4
20260507221307 76 5 1.0 3.0 0.00 0.00 0.00 23 1010.4
20260507220803 75 343 1.0 4.0 0.00 0.00 0.00 24 1010.6
20260507220302 75 345 2.0 2.0 0.00 0.00 0.00 23 1010.5
20260507215758 75 30 2.0 3.0 0.00 0.00 0.00 23 1010.6
20260507215255 75 14 2.0 3.0 0.00 0.00 0.00 23 1010.6
20260507214752 75 336 1.0 2.0 0.00 0.00 0.00 24 1010.5
20260507214249 75 355 2.0 3.0 0.00 0.00 0.00 24 1010.7
20260507213744 75 12 2.0 3.0 0.00 0.00 0.00 24 1010.6
20260507213242 76 3 3.0 4.0 0.00 0.00 0.00 24 1010.4
20260507212738 75 4 1.0 2.0 0.00 0.00 0.00 23 1010.7
20260507212235 75 335 1.0 2.0 0.00 0.00 0.00 25 1010.6
20260507211732 75 304 1.0 2.0 0.00 0.00 0.00 27 1010.7
20260507211228 74 353 2.0 3.0 0.00 0.00 0.00 25 1010.7
20260507210725 74 36 2.0 6.0 0.00 0.00 0.00 25 1011.2
20260507210221 75 358 2.0 3.0 0.00 0.00 0.00 23 1011.2
20260507205718 75 302 0.0 3.0 0.00 0.00 0.00 25 1011.0
20260507205215 74 9 3.0 6.0 0.00 0.00 0.00 24 1011.2
20260507204711 74 15 3.0 4.0 0.00 0.00 0.00 23 1011.3
20260507204209 74 226 2.0 3.0 0.00 0.00 0.00 27 1011.0
20260507203707 73 3 3.0 4.0 0.00 0.00 0.00 24 1011.0
20260507203204 74 339 2.0 2.0 0.00 0.00 0.00 24 1011.2
20260507202659 74 32 3.0 3.0 0.00 0.00 0.00 25 1011.4
20260507202155 73 19 2.0 6.0 0.00 0.00 0.00 23 1011.4
20260507201650 73 355 5.0 6.0 0.00 0.00 0.00 25 1011.5
20260507201148 74 13 3.0 9.0 0.00 0.00 0.00 26 1011.4
20260507200644 74 336 3.0 3.0 0.00 0.00 0.00 24 1011.4